Flag for Switzerland Weather past 2 weeks in La-Chaux-de-Fonds, Neuchâtel, Switzerland

Now
36 °F

Passing clouds.


Feels Like: 30 °F
Forecast: 31 / 43 °F
Wind: 7 mph from North

Location: Les Eplatures

Current Time: Oct 22, 2014 at 7:09:13 AM

Latest Report: Oct 22, 2014 at 6:20 AM


Visibility: N/A

Pressure: 30.09 "Hg

Humidity: 93%

Dew point: 34 °F

Location of La-Chaux-de-FondsLocation

Historic Weather in La-Chaux-de-Fonds — Graph

°F

La-Chaux-de-Fonds temperature yesterday

Maximum temperature yesterday: 55 °F (at 1:20 AM)
Minimum temperature yesterday: 39 °F (at 11:20 PM)
Average temperature yesterday: 51 °F

Past Weeks' High & Low Weather Summary

 TemperatureHumidityPressure
High72 °F (Oct 19, 1:50 PM)100% (Oct 7, 12:20 PM)30.30 "Hg (Oct 7, 12:20 PM)
Low36 °F (Oct 22, 5:50 AM)40% (Oct 9, 1:50 PM)29.80 "Hg (Oct 13, 4:50 AM)
Average54 °F88%30.00 "Hg
* Reported Oct 7 5:20 AM — Oct 22 5:50 AM, La-Chaux-de-Fonds, Weather by CustomWeather, © 2014

Note: Actual official high and low records may vary slightly from our data, if they occured in-between our weather recording intervals... More about our weather records

Advertising

La-Chaux-de-Fonds weather history for previous 24 hours

 ConditionsComfort  
Time TempWeatherWind HumidityBarometerVisibility
5:50 AM
Oct 22
36 °FSprinkles. Partly cloudy.8 mph93%30.09 "HgN/A
5:20 AM37 °FSprinkles. Partly cloudy.10 mph87%30.09 "HgN/A
4:50 AM37 °FPassing clouds.14 mph93%30.09 "HgN/A
4:20 AM37 °FPartly cloudy.12 mph93%30.09 "HgN/A
3:50 AM37 °FPartly cloudy.12 mph93%30.09 "HgN/A
3:20 AM37 °FSprinkles. Passing clouds.8 mph93%30.09 "HgN/A
2:50 AM37 °FSprinkles. Passing clouds.7 mph93%30.09 "HgN/A
2:20 AM39 °FPassing clouds.7 mph87%30.09 "HgN/A
1:50 AM39 °FPartly cloudy.8 mph87%30.12 "HgN/A
1:20 AM39 °FPartly cloudy.9 mph93%30.12 "HgN/A
12:50 AM39 °FSprinkles. Passing clouds.8 mph93%30.09 "HgN/A
12:20 AM39 °FSprinkles. Passing clouds.6 mph93%30.09 "HgN/A
11:50 PM
Oct 21
39 °FPartly cloudy.12 mph93%30.09 "HgN/A
11:20 PM39 °FPartly cloudy.10 mph93%30.09 "HgN/A
10:50 PM41 °FPartly cloudy.8 mph93%30.09 "HgN/A
10:20 PM41 °FPartly cloudy.9 mph87%30.07 "HgN/A
9:50 PM41 °FPartly cloudy.9 mph93%30.04 "HgN/A
9:20 PM41 °FPartly cloudy.10 mph93%30.04 "HgN/A
8:50 PM43 °FPassing clouds.16 mph93%30.01 "HgN/A
8:20 PM43 °FSprinkles. Partly sunny.15 mph100%29.98 "Hg6 mi
7:50 PM45 °FLots of rain. Fog.13 mph93%29.95 "Hg3 mi
7:20 PM50 °FSprinkles. Broken clouds.20 mph100%29.92 "HgN/A
6:50 PM52 °FRain. Broken clouds.15 mph94%29.89 "HgN/A
6:20 PM52 °FSprinkles. Broken clouds.17 mph100%29.89 "HgN/A
5:50 PM54 °FSprinkles. Partly sunny.22 mph88%29.92 "HgN/A
5:20 PM54 °FSprinkles. Partly sunny.15 mph88%29.92 "HgN/A
4:50 PM54 °FLight rain. Partly sunny.15 mph94%29.92 "HgN/A
4:20 PM54 °FSprinkles. Broken clouds.15 mph88%29.95 "HgN/A
3:50 PM54 °FLight rain. Partly sunny.13 mph82%29.95 "HgN/A
3:20 PM55 °FPartly sunny.15 mph77%29.98 "HgN/A
2:50 PM55 °FPartly sunny.15 mph77%29.98 "HgN/A
2:20 PM55 °FBroken clouds.18 mph77%30.01 "HgN/A
1:50 PM54 °FBroken clouds.16 mph82%30.04 "HgN/A
1:20 PM52 °FSprinkles. Broken clouds.16 mph88%30.04 "HgN/A
12:50 PM54 °FSprinkles. Broken clouds.14 mph82%30.04 "HgN/A
12:20 PM54 °FSprinkles. Broken clouds.17 mph88%30.07 "HgN/A
11:50 AM54 °FSprinkles. Partly sunny.15 mph88%30.04 "HgN/A
11:20 AM54 °FPartly sunny.13 mph94%30.07 "HgN/A
10:50 AM55 °FBroken clouds.12 mph88%30.04 "HgN/A
10:20 AM54 °FBroken clouds.10 mph100%30.07 "HgN/A
9:50 AM54 °FPartly cloudy.10 mph100%30.07 "HgN/A
9:20 AM54 °FPartly cloudy.10 mph100%30.07 "HgN/A
8:50 AM54 °FPassing clouds.10 mph100%30.07 "HgN/A
8:20 AM54 °FPassing clouds.9 mph100%30.07 "HgN/A
7:50 AM54 °FPassing clouds.8 mph100%30.04 "HgN/A
7:20 AM54 °FPassing clouds.7 mph100%30.04 "HgN/A
Weather by CustomWeather, © 2014

See weather overviewHow to use our weather pages